AYPY

Port Moresby Jacksons International Airport

Port Moresby, Papua New Guinea
Issued Wind Visibility Ceiling Temperature Dew Point Humidity Barometer
Aug-22
17:00 UTC
10,000+ meters   23° C
73° F
18° C
64° F
74% 29.88" Hg
1012 hPa
VFR
Aug-22
16:00 UTC
10,000+ meters   23° C
73° F
19° C
66° F
78% 29.88" Hg
1012 hPa
VFR
Aug-22
15:00 UTC
10,000+ meters   23° C
73° F
19° C
66° F
78% 29.88" Hg
1012 hPa
VFR
Aug-22
14:00 UTC
160°
12 KTS
10,000+ meters   24° C
75° F
19° C
66° F
74% 29.91" Hg
1013 hPa
VFR
Aug-22
13:00 UTC
150°
10 KTS
10,000+ meters   24° C
75° F
19° C
66° F
74% 29.91" Hg
1013 hPa
VFR
Aug-22
12:00 UTC
150°
12 KTS
10,000+ meters   24° C
75° F
19° C
66° F
74% 29.91" Hg
1013 hPa
VFR
Aug-22
11:00 UTC
160°
15 KTS
10,000+ meters   24° C
75° F
20° C
68° F
78% 29.91" Hg
1013 hPa
VFR
Aug-22
10:00 UTC
160°
10 KTS
10,000+ meters   25° C
77° F
19° C
66° F
69% 29.88" Hg
1012 hPa
VFR
Aug-22
09:00 UTC
160°
16 KTS
10,000+ meters   25° C
77° F
20° C
68° F
74% 29.88" Hg
1012 hPa
VFR
Aug-22
08:00 UTC
160°
12 KTS
10,000+ meters   26° C
79° F
20° C
68° F
70% 29.85" Hg
1011 hPa
VFR
Aug-22
07:00 UTC
140°
12 KTS
10,000+ meters   28° C
82° F
19° C
66° F
58% 29.85" Hg
1011 hPa
VFR
Aug-22
06:00 UTC
180°
16 KTS
10,000+ meters   30° C
86° F
18° C
64° F
49% 29.82" Hg
1010 hPa
VFR
Aug-22
05:00 UTC
180°
20 KTS
10,000+ meters   29° C
84° F
18° C
64° F
51% 29.82" Hg
1010 hPa
VFR
Aug-22
04:00 UTC
180°
18 KTS
10,000+ meters   30° C
86° F
18° C
64° F
49% 29.82" Hg
1010 hPa
VFR
Aug-22
03:00 UTC
180°
18 KTS
10,000+ meters   29° C
84° F
18° C
64° F
51% 29.85" Hg
1011 hPa
VFR
Aug-22
02:00 UTC
160°
15 KTS
10,000+ meters   29° C
84° F
19° C
66° F
55% 29.85" Hg
1011 hPa
VFR
Aug-22
01:00 UTC
150°
15 KTS
10,000+ meters Broken
14,000' AGL
29° C
84° F
18° C
64° F
51% 29.88" Hg
1012 hPa
VFR
Aug-22
00:00 UTC
160°
12 KTS
10,000+ meters   29° C
84° F
18° C
64° F
51% 29.91" Hg
1013 hPa
VFR
Aug-21
22:00 UTC
160°
4 KTS
10,000+ meters Broken
4,000' AGL
24° C
75° F
20° C
68° F
78% 29.91" Hg
1013 hPa
VFR
Aug-21
21:00 UTC
10,000+ meters Broken
4,000' AGL
23° C
73° F
20° C
68° F
83% 29.88" Hg
1012 hPa
VFR
Aug-21
20:00 UTC
10,000+ meters   23° C
73° F
20° C
68° F
83% 29.88" Hg
1012 hPa
VFR
Aug-21
19:00 UTC
  10,000+ meters   23° C
73° F
20° C
68° F
83%
VFR